Weather History for MCMWTC BRIDGEPORT, CA, CA

Change the Weather History Date:

Monday, April 7, 2014

  Actual Average (KTVL) Record (KTVL)
Temperature  
Mean Temperature 44 °F 39 °F  
Max Temperature 69 °F 52 °F 72 °F (1988)
Min Temperature 21 °F 25 °F -1 °F (1975)
Degree Days  
Heating Degree Days 22 26  
Month to date heating degree days 188  
Since 1 July heating degree days 6340  
Cooling Degree Days 0 0  
Month to date cooling degree days 0  
Year to date cooling degree days 0  
Moisture  
Dew Point 19 °F    
Average Humidity 46    
Maximum Humidity 81    
Minimum Humidity 11    
Precipitation  
Precipitation 0.00 in - 1.85 in (1935)
Month to date precipitation  
Year to date precipitation  
Sea Level Pressure  
Sea Level Pressure 30.27 in    
Wind  
Wind Speed 3 mph (WSW)    
Max Wind Speed 15 mph    
Max Gust Speed 22 mph    
Visibility 10 miles    
Events      
T = Trace of Precipitation, MM = Missing Value Source: NWS Daily Summary

Daily Weather History Graph

Daily Weather History Graph

Search for Another Location

Airport:

Trip Planner

Search our weather history database for the weather conditions in past years. The results will help you decide how hot, cold, wet, or windy it might be!

Date:

Astronomy

Apr. 07, 2014 Rise Set
Actual Time 6:33 AM PDT 7:27 PM PDT
Civil Twilight 6:06 AM PDT 7:54 PM PDT
Nautical Twilight 5:35 AM PDT 8:26 PM PDT
Astronomical Twilight 5:02 AM PDT 8:59 PM PDT
Moon 12:36 PM PDT (4/7) 2:05 AM PDT (4/7)
Length of Visible Light 13h 47m
Length of Day
12h 53m
First Quarter, 54% of the Moon is Illuminated
Apr 7
First Quarter
Apr 15
Full
Apr 22
Last Quarter
Apr 28
New
May 6
First Quarter

Hourly Weather History & Observations

Time (PDT) Temp. Windchill Dew Point Humidity Pressure Visibility Wind Dir Wind Speed Gust Speed Precip Events Conditions
12:52 AM 28.9 °F - 21.0 °F 72% 30.31 in 10.0 mi Calm Calm - N/A   Clear
1:52 AM 28.0 °F - 21.0 °F 75% 30.31 in 10.0 mi Calm Calm - N/A   Clear
2:52 AM 25.0 °F - 19.0 °F 78% 30.30 in 10.0 mi Calm Calm - N/A   Clear
3:52 AM 24.1 °F - 19.0 °F 81% 30.31 in 10.0 mi Calm Calm - N/A   Clear
4:52 AM 23.0 °F - 18.0 °F 81% 30.30 in 10.0 mi Calm Calm - N/A   Clear
5:52 AM 23.0 °F - 18.0 °F 81% 30.32 in 10.0 mi Calm Calm - N/A   Clear
6:52 AM 21.9 °F - 16.0 °F 78% 30.35 in 10.0 mi Calm Calm - N/A   Clear
7:52 AM 28.0 °F - 21.9 °F 78% 30.36 in 10.0 mi Calm Calm - N/A   Clear
8:52 AM 37.0 °F - 23.0 °F 57% 30.33 in 10.0 mi Calm Calm - N/A   Clear
9:52 AM 46.0 °F - 21.0 °F 37% 30.29 in 10.0 mi Calm Calm - N/A   Clear
10:52 AM 55.0 °F - 17.1 °F 23% 30.26 in 10.0 mi Variable 3.5 mph - N/A   Clear
11:52 AM 60.1 °F - 16.0 °F 18% 30.23 in 10.0 mi Variable 3.5 mph - N/A   Clear
12:52 PM 64.0 °F - 9.0 °F 12% 30.20 in 10.0 mi Variable 3.5 mph - N/A   Clear
1:52 PM 66.0 °F - 10.0 °F 11% 30.20 in 10.0 mi South 15.0 mph 21.9 mph N/A   Clear
2:52 PM 66.0 °F - 12.9 °F 13% 30.21 in 10.0 mi SSW 12.7 mph 21.9 mph N/A   Clear
3:52 PM 66.0 °F - 16.0 °F 15% 30.21 in 10.0 mi SSW 12.7 mph 21.9 mph N/A   Clear
4:52 PM 64.9 °F - 19.9 °F 18% 30.22 in 10.0 mi SW 11.5 mph 18.4 mph N/A   Clear
5:52 PM 63.0 °F - 21.9 °F 21% 30.23 in 10.0 mi SSW 11.5 mph - N/A   Clear
6:52 PM 55.0 °F - 24.1 °F 30% 30.26 in 10.0 mi West 5.8 mph - N/A   Clear
7:52 PM 51.1 °F - 24.1 °F 35% 30.26 in 10.0 mi NW 8.1 mph - N/A   Clear
8:52 PM 48.0 °F - 23.0 °F 37% 30.25 in 10.0 mi NNW 10.4 mph - N/A   Clear
9:52 PM 42.1 °F 39.2 °F 23.0 °F 47% 30.26 in 10.0 mi North 4.6 mph - N/A   Clear
10:52 PM 39.0 °F - 23.0 °F 53% 30.25 in 10.0 mi Calm Calm - N/A   Clear
11:52 PM 36.0 °F - 23.0 °F 59% 30.24 in 10.0 mi Calm Calm - N/A   Clear